Regional Weather Roundup
Issued by NWS Mt. Holly, NJ

Home | Current Version | Previous Version | Text Only | Print | Product List | Glossary On
Versions: 1 2 3 4 5 6 7 8 9 10 11 12 13 14 15 16 17 18 19 20 21 22 23 24 25 26 27 28 29 30 31 32 33 34 35 36 37 38 39 40 41 42 43 44 45 46 47 48 49 50
807
ASUS41 KPHI 310712
RWRPHI

REGIONAL WEATHER ROUNDUP
NATIONAL WEATHER SERVICE MOUNT HOLLY NJ
300 AM EDT SUN JUL 31 2016

NOTE:  "FAIR" INDICATES FEW OR NO CLOUDS BELOW 12,000 FEET WITH NO
SIGNIFICANT WEATHER AND/OR OBSTRUCTIONS TO VISIBILITY.

 * = STATION DOES NOT REPORT PRECIPITATION (E.G. RAIN, SNOW, ETC.)
        OR FOG.

NJZ015>026-310800-
SOUTHERN NEW JERSEY

CITY           SKY/WX    TMP DP  RH WIND       PRES   REMARKS
POMONA         MOCLDY    76  73  91 E7        29.95F
WILDWOOD*        N/A    N/A N/A N/A MISG        N/A
MILLVILLE      CLOUDY    75  73  93 SE5       29.95F
WRIGHTSTOWN    CLOUDY    73  73  98 E5        29.94F
MOUNT HOLLY    CLOUDY    74  72  93 E3        29.96F
TRENTON        CLOUDY    74  72  93 E3        29.96F FOG

$$
NJZ001>014-310800-
NORTHERN NEW JERSEY

CITY           SKY/WX    TMP DP  RH WIND       PRES   REMARKS
SUSSEX         LGT RAIN  70  69  97 CALM      30.00F
ANDOVER*         N/A     70  68  93 N3        30.01S
MORRISTOWN     HVY RAIN  73  70  88 CALM      29.99F
NEWARK         CLOUDY    75  73  93 SE6       29.98F
TETERBORO      CLOUDY    76  72  87 CALM      29.98F
CALDWELL       CLOUDY    75  72  90 SE6       29.99F
SOMERVILLE     CLOUDY    73  71  93 CALM      29.96F FOG
ALLAIRE*       CLOUDY    74  73  97 SE6       29.99F
TOMS RIVER*    CLOUDY    75  73  93 SE5       29.98F

$$
PAZ043-044-047-054-055-060>062-066>071-310800-
EASTERN PENNSYLVANIA

CITY           SKY/WX    TMP DP  RH WIND       PRES   REMARKS
PHILADELPHIA   LGT RAIN  76  73  91 E8        29.95F
NORTH PHILA    CLOUDY    76  74  93 SE6       29.97F
BLUE BELL*     CLOUDY    72  72 100 CALM      29.96F
DOYLESTOWN     CLOUDY    72  72 100 CALM      29.97F
QUAKERTOWN*    CLOUDY    73  73 100 CALM      29.99F
PERKASIE*      CLOUDY    72  72 100 E3        29.99S
POTTSTOWN      CLOUDY    73  73 100 CALM      29.98S FOG
LANCASTER      CLOUDY    71  70  96 SE5       29.96F
COATESVILLE    CLOUDY    72  72 100 CALM      29.99S FOG
READING        CLOUDY    72  70  93 CALM      29.95F FOG
ALLENTOWN      CLOUDY    73  70  88 E5        29.98F
MOUNT POCONO   FOG       67  66  97 S6        30.04F VSB 1
HAZLETON       CLOUDY    68  68 100 CALM      30.04F FOG
LEHIGHTON      RAIN      70  70 100 CALM      29.99F
WILKES BARRE   CLOUDY    69  68  96 CALM      30.00F

$$
DEZALL-MDZ008-012-015-019-020-310800-
DELAWARE AND EASTERN MARYLAND

CITY           SKY/WX    TMP DP  RH WIND       PRES   REMARKS
WILMINGTON     CLOUDY    75  73  93 E5        29.95F
DOVER          CLOUDY    76  76 100 SE6       29.92F
GEORGETOWN     PTCLDY    75  73  93 CALM      29.94F
EASTON         MOCLDY    75  75 100 E3        29.97S
OCEAN CITY     CLOUDY    78  74  87 SE5       29.93F
WALLOPS ISLAND FAIR      77  73  87 SW5       29.93F
CAMBRIDGE      CLOUDY    72  72 100 CALM      29.92S

$$
PAZ001-021-NYZ056-072-MDZ011-DCZ001-310800-
OTHER NEARBY LOCATIONS

CITY           SKY/WX    TMP DP  RH WIND       PRES   REMARKS
HARRISBURG     CLOUDY    73  71  93 CALM      29.95F
STATE COLLEGE  CLOUDY    69  68  99 NE3       29.98F FOG
WILLIAMSPORT   CLOUDY    71  67  87 E6        29.95F
BINGHAMTON     RAIN      65  65 100 SE5       30.02F FOG
NEW YORK CITY  CLOUDY    74  72  93 VRB3      30.02F FOG
BALTIMORE      CLOUDY    73  72  96 CALM      29.93F
WASHINGTON DC  CLOUDY    76  73  91 N3        29.95R

$$




USA.gov is the U.S. government's official web portal to all federal, state and local government web resources and services.